TimeCST,TemperatureF,Dew PointF,Humidity,Sea Level PressureIn,VisibilityMPH,Wind Direction,Wind SpeedMPH,Gust SpeedMPH,PrecipitationIn,Events,Conditions,WindDirDegrees,DateUTC
12:15 AM,34.2,30.9,88,30.23,10.0,South,5.8,-,N/A,,Mostly Cloudy,190,2013-11-20 06:15:00
12:35 AM,34.7,31.3,87,30.23,10.0,South,6.9,-,N/A,,Overcast,180,2013-11-20 06:35:00
12:55 AM,35.1,31.8,88,30.23,10.0,SSW,4.6,-,N/A,,Overcast,200,2013-11-20 06:55:00
1:15 AM,35.1,32.0,89,30.23,10.0,SSW,4.6,-,N/A,,Overcast,210,2013-11-20 07:15:00
1:35 AM,35.1,32.0,89,30.23,10.0,SSW,4.6,-,N/A,,Overcast,200,2013-11-20 07:35:00
1:55 AM,34.7,32.0,90,30.24,10.0,South,3.5,-,N/A,,Scattered Clouds,190,2013-11-20 07:55:00
2:15 AM,34.7,32.0,90,30.23,10.0,SSE,4.6,-,N/A,,Scattered Clouds,160,2013-11-20 08:15:00
2:35 AM,34.9,32.4,91,30.23,10.0,South,4.6,-,N/A,,Mostly Cloudy,170,2013-11-20 08:35:00
2:55 AM,35.8,32.5,88,30.23,10.0,South,8.1,-,N/A,,Scattered Clouds,180,2013-11-20 08:55:00
3:15 AM,36.1,32.5,87,30.23,10.0,South,5.8,-,N/A,,Scattered Clouds,180,2013-11-20 09:15:00
3:35 AM,36.0,32.5,87,30.23,10.0,South,6.9,-,N/A,,Clear,190,2013-11-20 09:35:00
3:55 AM,35.8,32.5,88,30.23,10.0,South,5.8,-,N/A,,Clear,190,2013-11-20 09:55:00
4:15 AM,36.0,32.5,87,30.22,10.0,South,5.8,-,N/A,,Mostly Cloudy,180,2013-11-20 10:15:00
4:35 AM,36.1,32.4,86,30.22,10.0,South,5.8,-,N/A,,Overcast,180,2013-11-20 10:35:00
4:55 AM,35.8,32.2,87,30.23,10.0,South,5.8,-,N/A,,Mostly Cloudy,190,2013-11-20 10:55:00
5:15 AM,35.6,32.0,87,30.22,10.0,South,5.8,-,N/A,,Scattered Clouds,180,2013-11-20 11:15:00
5:35 AM,35.8,32.2,87,30.22,10.0,South,5.8,-,N/A,,Mostly Cloudy,180,2013-11-20 11:35:00
5:55 AM,35.6,32.0,87,30.22,10.0,South,5.8,-,N/A,,Overcast,180,2013-11-20 11:55:00
6:15 AM,36.0,32.2,86,30.21,10.0,South,8.1,-,N/A,,Overcast,170,2013-11-20 12:15:00
6:35 AM,36.0,32.4,87,30.22,10.0,South,11.5,17.3,N/A,,Scattered Clouds,170,2013-11-20 12:35:00
6:55 AM,36.0,32.2,86,30.21,10.0,South,9.2,-,N/A,,Scattered Clouds,170,2013-11-20 12:55:00
7:15 AM,36.5,32.0,84,30.21,10.0,South,9.2,-,N/A,,Scattered Clouds,180,2013-11-20 13:15:00
7:35 AM,36.9,32.0,83,30.20,10.0,South,9.2,16.1,N/A,,Scattered Clouds,170,2013-11-20 13:35:00
7:55 AM,37.0,32.0,82,30.20,10.0,South,8.1,-,N/A,,Clear,170,2013-11-20 13:55:00
8:15 AM,37.4,32.4,82,30.21,10.0,South,10.4,18.4,N/A,,Clear,190,2013-11-20 14:15:00
8:35 AM,37.8,32.9,83,30.21,10.0,South,9.2,-,N/A,,Scattered Clouds,170,2013-11-20 14:35:00
8:55 AM,38.3,32.9,81,30.22,10.0,South,6.9,-,N/A,,Mostly Cloudy,180,2013-11-20 14:55:00
9:15 AM,38.7,32.9,80,30.22,10.0,South,8.1,-,N/A,,Overcast,190,2013-11-20 15:15:00
9:35 AM,39.0,32.9,79,30.22,10.0,South,11.5,-,N/A,,Overcast,190,2013-11-20 15:35:00
9:55 AM,39.2,32.9,78,30.22,10.0,SSW,5.8,-,N/A,,Overcast,210,2013-11-20 15:55:00
10:15 AM,39.6,32.7,76,30.22,10.0,South,8.1,18.4,N/A,,Mostly Cloudy,190,2013-11-20 16:15:00
10:35 AM,39.7,32.5,75,30.22,10.0,South,6.9,-,N/A,,Scattered Clouds,190,2013-11-20 16:35:00
10:55 AM,40.6,32.5,73,30.21,10.0,South,9.2,16.1,N/A,,Scattered Clouds,180,2013-11-20 16:55:00
11:15 AM,40.6,32.0,71,30.20,10.0,South,9.2,18.4,N/A,,Scattered Clouds,180,2013-11-20 17:15:00
11:35 AM,41.0,32.0,70,30.19,10.0,South,8.1,17.3,N/A,,Mostly Cloudy,180,2013-11-20 17:35:00
11:55 AM,41.4,31.6,68,30.18,10.0,South,12.7,18.4,N/A,,Scattered Clouds,190,2013-11-20 17:55:00
12:15 PM,42.1,31.5,66,30.17,10.0,South,13.8,18.4,N/A,,Scattered Clouds,180,2013-11-20 18:15:00
12:35 PM,43.0,31.5,64,30.17,10.0,South,17.3,21.9,N/A,,Mostly Cloudy,170,2013-11-20 18:35:00
12:55 PM,42.1,30.4,63,30.16,10.0,South,11.5,20.7,N/A,,Mostly Cloudy,180,2013-11-20 18:55:00
1:15 PM,41.9,30.2,63,30.16,10.0,South,10.4,-,N/A,,Mostly Cloudy,190,2013-11-20 19:15:00
1:35 PM,41.9,30.2,63,30.15,10.0,South,8.1,17.3,N/A,,Mostly Cloudy,180,2013-11-20 19:35:00
1:55 PM,42.1,30.2,63,30.14,10.0,South,8.1,16.1,N/A,,Mostly Cloudy,170,2013-11-20 19:55:00
2:15 PM,42.1,29.5,61,30.14,10.0,South,11.5,-,N/A,,Mostly Cloudy,170,2013-11-20 20:15:00
2:35 PM,41.2,30.7,66,30.13,10.0,SSE,8.1,16.1,N/A,,Scattered Clouds,150,2013-11-20 20:35:00
2:55 PM,41.0,30.9,67,30.12,10.0,SSE,10.4,-,N/A,,Scattered Clouds,150,2013-11-20 20:55:00
3:15 PM,40.3,30.2,67,30.13,10.0,SSE,9.2,19.6,N/A,,Clear,160,2013-11-20 21:15:00
3:35 PM,39.6,30.0,69,30.12,10.0,SSE,8.1,-,N/A,,Clear,160,2013-11-20 21:35:00
3:55 PM,39.2,30.7,72,30.13,10.0,SSE,8.1,-,N/A,,Clear,160,2013-11-20 21:55:00
4:15 PM,38.8,30.9,73,30.13,10.0,SSE,9.2,-,N/A,,Mostly Cloudy,160,2013-11-20 22:15:00
4:35 PM,38.8,30.9,73,30.13,10.0,SSE,6.9,-,N/A,,Overcast,150,2013-11-20 22:35:00
4:55 PM,38.8,31.5,75,30.14,10.0,SSE,9.2,-,N/A,,Overcast,160,2013-11-20 22:55:00
5:15 PM,38.8,32.0,76,30.14,10.0,SSE,6.9,-,N/A,,Overcast,160,2013-11-20 23:15:00
5:35 PM,38.7,32.0,77,30.14,10.0,South,8.1,-,N/A,,Overcast,170,2013-11-20 23:35:00
5:55 PM,38.7,32.0,77,30.14,10.0,SSE,8.1,-,N/A,,Overcast,160,2013-11-20 23:55:00
6:15 PM,38.5,32.0,78,30.14,10.0,SSE,6.9,-,N/A,,Overcast,160,2013-11-21 00:15:00
6:35 PM,38.7,32.2,78,30.14,10.0,SSE,8.1,-,N/A,,Overcast,160,2013-11-21 00:35:00
6:55 PM,38.7,32.0,77,30.14,10.0,SSE,9.2,-,N/A,,Overcast,160,2013-11-21 00:55:00
7:35 PM,38.8,32.0,76,30.14,10.0,SSE,5.8,-,N/A,,Overcast,160,2013-11-21 01:35:00
7:55 PM,39.2,31.8,75,30.13,10.0,SSE,4.6,-,N/A,,Overcast,160,2013-11-21 01:55:00
8:15 PM,39.0,31.6,75,30.13,10.0,SSE,4.6,-,N/A,,Overcast,150,2013-11-21 02:15:00
8:35 PM,38.8,32.0,76,30.12,10.0,SSE,3.5,-,N/A,,Overcast,160,2013-11-21 02:35:00
8:55 PM,39.2,32.0,75,30.11,10.0,SSE,4.6,-,N/A,,Overcast,160,2013-11-21 02:55:00
9:15 PM,39.2,32.0,75,30.12,10.0,South,3.5,-,N/A,,Overcast,170,2013-11-21 03:15:00
9:35 PM,39.0,32.0,76,30.11,10.0,Calm,Calm,-,N/A,,Overcast,0,2013-11-21 03:35:00
9:55 PM,38.8,32.0,76,30.11,10.0,South,3.5,-,N/A,,Overcast,170,2013-11-21 03:55:00
10:15 PM,38.8,32.2,77,30.12,10.0,SSE,3.5,-,N/A,,Overcast,160,2013-11-21 04:15:00
10:35 PM,38.8,32.0,76,30.12,10.0,Calm,Calm,-,N/A,,Overcast,0,2013-11-21 04:35:00
10:55 PM,38.8,32.2,77,30.11,10.0,SSE,3.5,-,N/A,,Overcast,160,2013-11-21 04:55:00
11:15 PM,39.2,32.9,78,30.12,10.0,South,5.8,-,N/A,,Overcast,180,2013-11-21 05:15:00
11:35 PM,38.7,33.6,82,30.12,10.0,South,8.1,17.3,N/A,,Overcast,190,2013-11-21 05:35:00
11:55 PM,38.5,34.0,84,30.11,10.0,South,4.6,-,N/A,,Overcast,180,2013-11-21 05:55:00